Regional Weather Roundup
Issued by NWS Upton, NY

Current Version | Previous Version | Text Only | Print | Product List | Glossary On
Versions: 1 2 3 4 5 6 7 8 9 10 11 12 13 14 15 16 17 18 19 20 21 22 23 24 25 26 27 28 29 30 31 32 33 34 35 36 37 38 39 40 41 42 43 44 45 46 47 48 49 50
183
ASUS41 KOKX 280208
RWROKX

REGIONAL WEATHER ROUNDUP
NATIONAL WEATHER SERVICE NEW YORK NY
1000 PM EDT TUE SEP 27 2016

NOTE: "FAIR" INDICATES FEW OR NO CLOUDS BELOW 12,000 FEET WITH NO
SIGNIFICANT WEATHER AND/OR OBSTRUCTIONS TO VISIBILITY.

NYZ071-072-176-178-NJZ106-104-280300-
NEW YORK CITY METRO AREA

CITY           SKY/WX    TMP DP  RH WIND       PRES   REMARKS
Central Park   CLEAR     66  60  81 CALM      29.98R
LaGuardia APRT PTCLDY    70  64  81 S8        29.95R
Kennedy INTL   PTCLDY    67  62  84 SW7       29.96R
Newark/Liberty PTCLDY    69  58  67 S3        29.95R
Bronx Bot Gard   N/A    N/A N/A N/A NE1       29.96F
Wall St Helipt CLEAR     70  63  78 S5        29.96R
Teterboro      CLEAR     64  58  80 CALM      29.95R
$$

NYZ177-179-078>081-280300-
LONG ISLAND NEW YORK

CITY           SKY/WX    TMP DP  RH WIND       PRES   REMARKS
Farmingdale    CLEAR     63  60  90 CALM      29.96R
MacArthur/ISP  MOCLDY    61  59  93 CALM      29.96R
Shirley        PTCLDY    59  59 100 CALM      29.97R
Riverhead      NOT AVBL
Westhampton    CLOUDY    63  60  90 CALM      29.99R
Southampton      N/A     66  63  88 CALM      29.93R
Bridgehampton    N/A    N/A N/A N/A CALM      29.83R
East Hampton   CLOUDY    63  62  97 CALM      29.97R
Montauk          N/A     65  64  97 CALM      29.98R
$$

NYZ052-065-067-280300-
HUDSON VALLEY

CITY           SKY/WX    TMP DP  RH WIND       PRES   REMARKS
White Plains   CLEAR     60  57  89 NW3       29.96R
Newburgh       NOT AVBL
Montgomery     CLEAR     53  51  93 CALM      29.96R
Poughkeepsie   CLEAR     54  53  97 CALM      29.95R
Albany         PTCLDY    57  51  80 CALM      29.96R
$$

NJZ001-105-106-008-010-013-015-019>022-104-280300-
NEW JERSEY

CITY           SKY/WX    TMP DP  RH WIND       PRES   REMARKS
Newark/Liberty PTCLDY    69  58  67 S3        29.95R
Teterboro      CLEAR     64  58  80 CALM      29.95R
Caldwell       CLEAR     57  53  86 CALM      29.97R
Morristown     CLEAR     54  52  94 CALM      29.97R
Somerville     CLEAR     54  52  93 CALM      29.95R
Linden         NOT AVBL
Sussex         CLEAR     52  52 100 CALM      29.97R
Abdover          N/A     51  50  96 CALM      29.97R
Trenton        CLEAR     63  53  70 CALM      29.95R
Millville      PTCLDY    58  58 100 CALM      29.95S
Atlantic City  PTCLDY    61  60  97 CALM      29.96R
Wrightstown    CLEAR     60  60  97 VRB2      29.93S
Toms River     PTCLDY    61  59  93 SE7       29.96S
Belmar         CLEAR     62  61  96 CALM      29.97R
$$

PAZ047>061-062-071-280300-
EASTERN PENNSYLVANIA

CITY           SKY/WX    TMP DP  RH WIND       PRES   REMARKS
Philadelphia   PTCLDY    66  60  81 SW3       29.96R
Allentown      CLEAR     54  49  83 N3        29.95R
Scranton       CLEAR     56  50  80 E6        29.97R
$$

CTZ002-004>006-009-010-012-RIZ004-006-007-MAZ004-011-015-280300-
SOUTHERN NEW ENGLAND
 IN CT

CITY           SKY/WX    TMP DP  RH WIND       PRES   REMARKS
Bradley INTL   PTCLDY    60  57  89 CALM      29.97R
Hartford       CLEAR     61  60  97 CALM      29.97R
Danbury        CLEAR     54  54 100 CALM      29.98R
Wtrbury/Oxford   N/A     57  54  88 CALM      29.99R
Bridgeport     CLEAR     67  60  78 SW5       29.96R
Meriden        PTCLDY    60  57  89 CALM      29.97R
New Haven      CLEAR     62  59  90 CALM      29.97R
Chester        FAIR      59  59 100 CALM      29.98R
Groton         MOCLDY    63  60  90 CALM      29.97R
Wilimantic     CLEAR     60  59  96 CALM      29.98R

 IN RI

CITY           SKY/WX    TMP DP  RH WIND       PRES   REMARKS
Providence     PTCLDY    61  59  93 CALM      29.98R
Block Island   CLOUDY    66  65  96 SW3       29.98R
Westerly       MOCLDY    62  59  90 CALM      29.98R
 IN MA

CITY           SKY/WX    TMP DP  RH WIND       PRES   REMARKS
Boston         MOCLDY    62  60  93 E5        29.99R
Worcester      PTCLDY    61  53  75 SE5       29.99R
Westfield      MOCLDY    58  56  93 N3        29.97R
Provincetown   CLOUDY    58  58 100 E5        29.99R
Nantucket      CLOUDY    66  64  93 CALM      29.98R
$$

ANZ330-335-338-340-345-350-353-355-280300-
COASTAL MARINE OBSERVATIONS


STATION/POSITION TIME  SKY/WX   TEMP    WIND        PRES    VSBY  WAVE
                                AIR SEA DIR/SP/G                  HT/PER
                 (UTC)          (F)     (DEG/KT/KT) (MB)    (MI)  (FT/S)
NY HARB ENTRANCE 0150            70 71  230/  8/ 10 1014.2          4/ 7
20S FIRE ISLAND  0150            69 70  220/  8/  8 1014.2          4/ 7
GREAT SOUTH BAY  0130            69 70  230/  8/  8   N/A
23 SSW MONTAUK P 0150            68 68  230/  6/  6 1015.1          5/ 8
15 E BARNEGAT LI 0100               71                N/A           4/ 7
HUDSON CANYON    0050            68 69              1014.2          5/ 7
KINGS POINT      0130            67 73              1014.1
EXECUTION ROCKS  0145            69     190/  6/  8   N/A
CENTRAL LI SOUND 0100            69 72  230/  8/  8   N/A           1
EASTERN LI SOUND NOT AVBL
ROBBINS REEF     0130            70     230/  5/  6 1014.3
$$


>>>>>>>>>>>>>>>>>>>>>>>>>>>> KEY <<<<<<<<<<<<<<<<<<<<<<<<<<<
>                                                          <
>     SKY/WX - Sky Condition/Present Weather               <
>     TMP    - Temperature in Fahrenheit                   <
>     DP     - Dew Point in Fahrenheit                     <
>     RH     - Relative Humidity in Percent                <
>     WIND   - Direction (from) and Speed in MPH           <
>     PRES   - Mean Sea Level Pressure (inches of Hg)      <
>     WCI    - Wind Chill Index                            <
>     VSB    - VISIBILITY IN MILES                         <
>     HX     - HEAT INDEX                                  <
>     TC     - TEMPERATURE IN CELSIUS                      <
>     VRB    - VARIABLE WIND DIRECTION                     <
>                                                          <
>>>>>>>>>>>>>>>>>>>>>>>>>>>> KEY <<<<<<<<<<<<<<<<<<<<<<<<<<<




USA.gov is the U.S. government's official web portal to all federal, state and local government web resources and services.